GFSFLT1_prec_precacc12_060.txt.gz
Total_Precipitation_Accumulation
0.00 0.00 0.00 0.00 0.00 0.00 0.00 0.00 0.00 0.00 0.00 0.00 0.00 0.01 0.03 0.04 0.04 0.08 0.08 0.09 0.07 0.03 0.02 0.00 0.00 0.00 0.00 0.00 0.00 0.00 0.00 0.00
0.00 0.00 0.00 0.00 0.00 0.00 0.00 0.00 0.00 0.00 0.00 0.00 0.00 0.01 0.02 0.05 0.11 0.12 0.09 0.08 0.06 0.03 0.01 0.00 0.00 0.00 0.00 0.00 0.00 0.00 0.00 0.00
0.00 0.00 0.00 0.00 0.00 0.01 0.02 0.01 0.00 0.00 0.00 0.00 0.00 0.00 0.04 0.04 0.10 0.09 0.07 0.08 0.06 0.02 0.00 0.00 0.00 0.00 0.00 0.00 0.00 0.00 0.00 0.00
0.00 0.00 0.00 0.00 0.00 0.00 0.02 0.02 0.00 0.00 0.00 0.00 0.00 0.02 0.05 0.04 0.08 0.14 0.09 0.05 0.02 0.00 0.00 0.00 0.00 0.00 0.00 0.00 0.00 0.00 0.00 0.00
0.00 0.00 0.00 0.00 0.00 0.00 0.01 0.04 0.02 0.01 0.00 0.00 0.00 0.02 0.04 0.07 0.10 0.08 0.03 0.01 0.00 0.00 0.00 0.00 0.00 0.00 0.00 0.00 0.00 0.00 0.00 0.00
0.00 0.00 0.00 0.00 0.00 0.00 0.02 0.07 0.06 0.03 0.01 0.04 0.07 0.11 0.13 0.12 0.09 0.05 0.03 0.04 0.02 0.01 0.00 0.00 0.00 0.00 0.00 0.00 0.00 0.00 0.00 0.00
0.00 0.00 0.00 0.00 0.00 0.00 0.01 0.11 0.06 0.10 0.07 0.11 0.13 0.15 0.13 0.10 0.07 0.04 0.03 0.02 0.01 0.01 0.01 0.00 0.00 0.00 0.00 0.00 0.00 0.00 0.00 0.01
0.00 0.00 0.00 0.00 0.01 0.01 0.03 0.10 0.15 0.16 0.23 0.16 0.15 0.16 0.10 0.04 0.02 0.02 0.02 0.03 0.02 0.01 0.01 0.01 0.00 0.01 0.01 0.01 0.01 0.03 0.02 0.01
0.00 0.00 0.00 0.00 0.01 0.01 0.04 0.08 0.17 0.17 0.23 0.21 0.22 0.19 0.06 0.03 0.03 0.04 0.05 0.03 0.02 0.02 0.02 0.02 0.02 0.02 0.06 0.07 0.05 0.02 0.00 0.00
0.00 0.00 0.00 0.00 0.00 0.01 0.07 0.12 0.16 0.17 0.17 0.19 0.28 0.23 0.10 0.07 0.06 0.05 0.05 0.04 0.05 0.05 0.03 0.04 0.10 0.13 0.08 0.03 0.02 0.01 0.00 0.00
0.00 0.00 0.00 0.00 0.00 0.04 0.07 0.06 0.08 0.08 0.09 0.14 0.19 0.19 0.14 0.08 0.06 0.05 0.04 0.05 0.09 0.09 0.10 0.14 0.10 0.05 0.04 0.03 0.03 0.01 0.00 0.00
0.00 0.00 0.00 0.00 0.01 0.03 0.02 0.02 0.02 0.04 0.08 0.11 0.11 0.13 0.11 0.10 0.08 0.06 0.05 0.07 0.13 0.18 0.14 0.10 0.09 0.08 0.06 0.03 0.02 0.03 0.02 0.00
0.00 0.00 0.00 0.00 0.00 0.00 0.00 0.02 0.04 0.11 0.15 0.18 0.18 0.22 0.24 0.24 0.19 0.14 0.16 0.18 0.16 0.14 0.22 0.20 0.09 0.06 0.05 0.06 0.06 0.02 0.00 0.00
0.00 0.00 0.00 0.00 0.00 0.01 0.04 0.06 0.11 0.18 0.15 0.17 0.23 0.22 0.22 0.23 0.21 0.20 0.29 0.47 0.52 0.43 0.27 0.15 0.07 0.07 0.08 0.06 0.03 0.00 0.00 0.00
0.00 0.00 0.00 0.00 0.01 0.06 0.10 0.10 0.15 0.18 0.18 0.20 0.25 0.25 0.21 0.17 0.13 0.14 0.17 0.16 0.12 0.07 0.06 0.09 0.13 0.12 0.06 0.02 0.00 0.00 0.00 0.00
0.00 0.00 0.01 0.01 0.04 0.11 0.13 0.15 0.14 0.15 0.16 0.15 0.14 0.10 0.06 0.04 0.03 0.02 0.03 0.05 0.06 0.07 0.07 0.06 0.05 0.06 0.04 0.01 0.00 0.00 0.00 0.00
0.00 0.00 0.01 0.02 0.04 0.08 0.10 0.10 0.11 0.11 0.09 0.07 0.04 0.01 0.01 0.01 0.00 0.02 0.03 0.02 0.02 0.03 0.05 0.08 0.08 0.04 0.02 0.01 0.00 0.00 0.00 0.00
0.00 0.00 0.00 0.00 0.00 0.00 0.01 0.04 0.05 0.03 0.02 0.01 0.01 0.01 0.00 0.00 0.01 0.00 0.01 0.04 0.07 0.12 0.14 0.10 0.04 0.01 0.01 0.00 0.00 0.00 0.00 0.00
0.00 0.00 0.00 0.00 0.00 0.00 0.00 0.00 0.00 0.01 0.00 0.00 0.00 0.00 0.00 0.00 0.01 0.05 0.09 0.13 0.16 0.13 0.04 0.01 0.00 0.00 0.00 0.00 0.00 0.00 0.00 0.00

GFSFLT1_prec_precacc12_066.txt.gz
Total_Precipitation_Accumulation
0.00 0.00 0.00 0.00 0.00 0.00 0.00 0.00 0.00 0.00 0.00 0.00 0.00 0.00 0.00 0.00 0.01 0.08 0.15 0.16 0.09 0.04 0.03 0.00 0.00 0.00 0.00 0.00 0.00 0.00 0.00 0.00
0.00 0.00 0.00 0.00 0.00 0.00 0.00 0.00 0.00 0.00 0.00 0.00 0.00 0.00 0.00 0.02 0.07 0.12 0.17 0.15 0.10 0.04 0.02 0.00 0.00 0.00 0.00 0.00 0.00 0.00 0.00 0.00
0.00 0.00 0.00 0.00 0.00 0.00 0.00 0.00 0.00 0.00 0.00 0.00 0.00 0.00 0.00 0.01 0.07 0.09 0.09 0.13 0.09 0.04 0.02 0.01 0.01 0.00 0.00 0.00 0.00 0.00 0.00 0.00
0.00 0.00 0.00 0.00 0.00 0.00 0.00 0.00 0.00 0.00 0.00 0.00 0.00 0.00 0.00 0.02 0.07 0.14 0.11 0.07 0.04 0.01 0.01 0.01 0.00 0.01 0.00 0.00 0.00 0.00 0.00 0.00
0.00 0.00 0.00 0.00 0.00 0.00 0.00 0.00 0.00 0.00 0.00 0.00 0.00 0.00 0.01 0.06 0.10 0.08 0.03 0.02 0.01 0.01 0.01 0.02 0.02 0.02 0.01 0.01 0.00 0.00 0.00 0.00
0.00 0.00 0.00 0.00 0.00 0.00 0.00 0.00 0.00 0.00 0.00 0.00 0.00 0.01 0.04 0.07 0.07 0.05 0.03 0.05 0.04 0.03 0.02 0.02 0.02 0.03 0.03 0.02 0.00 0.00 0.00 0.00
0.00 0.00 0.00 0.00 0.00 0.00 0.00 0.00 0.00 0.00 0.00 0.02 0.03 0.04 0.04 0.05 0.06 0.04 0.03 0.02 0.03 0.03 0.04 0.05 0.05 0.05 0.05 0.04 0.06 0.09 0.13 0.08
0.00 0.00 0.00 0.00 0.00 0.00 0.00 0.00 0.00 0.00 0.02 0.04 0.06 0.08 0.08 0.03 0.02 0.02 0.05 0.09 0.11 0.08 0.05 0.03 0.04 0.05 0.04 0.06 0.11 0.13 0.09 0.08
0.00 0.00 0.00 0.00 0.00 0.00 0.00 0.00 0.00 0.00 0.03 0.07 0.15 0.13 0.05 0.04 0.04 0.09 0.14 0.12 0.08 0.05 0.04 0.04 0.05 0.08 0.17 0.22 0.23 0.19 0.16 0.09
0.00 0.00 0.00 0.00 0.00 0.00 0.00 0.00 0.00 0.00 0.03 0.12 0.22 0.20 0.10 0.07 0.07 0.11 0.13 0.08 0.05 0.04 0.05 0.11 0.17 0.26 0.23 0.16 0.15 0.14 0.11 0.06
0.00 0.00 0.00 0.00 0.00 0.00 0.00 0.00 0.00 0.00 0.03 0.10 0.16 0.21 0.22 0.14 0.14 0.23 0.19 0.10 0.07 0.06 0.07 0.10 0.09 0.09 0.12 0.20 0.21 0.13 0.06 0.04
0.00 0.00 0.00 0.00 0.00 0.00 0.00 0.00 0.00 0.00 0.04 0.07 0.09 0.21 0.22 0.33 0.49 0.27 0.15 0.15 0.16 0.13 0.08 0.12 0.23 0.31 0.28 0.19 0.15 0.14 0.12 0.07
0.00 0.00 0.00 0.00 0.00 0.00 0.00 0.00 0.00 0.03 0.06 0.28 0.28 0.51 0.42 0.26 0.31 0.23 0.17 0.16 0.16 0.16 0.37 0.48 0.34 0.22 0.18 0.18 0.14 0.08 0.06 0.04
0.00 0.00 0.00 0.00 0.00 0.00 0.00 0.01 0.02 0.09 0.21 0.35 0.24 0.42 0.17 0.16 0.17 0.19 0.30 0.51 0.64 0.62 0.51 0.37 0.24 0.18 0.15 0.12 0.10 0.07 0.04 0.01
0.00 0.00 0.00 0.00 0.00 0.00 0.01 0.02 0.06 0.09 0.06 0.10 0.19 0.22 0.17 0.20 0.14 0.19 0.20 0.19 0.14 0.10 0.10 0.11 0.14 0.13 0.09 0.08 0.06 0.03 0.01 0.00
0.00 0.00 0.00 0.00 0.00 0.03 0.04 0.04 0.04 0.07 0.08 0.08 0.11 0.12 0.16 0.07 0.05 0.06 0.03 0.02 0.05 0.07 0.06 0.06 0.05 0.07 0.09 0.06 0.02 0.00 0.00 0.00
0.00 0.00 0.00 0.00 0.01 0.03 0.05 0.06 0.08 0.09 0.06 0.12 0.10 0.11 0.08 0.04 0.03 0.01 0.01 0.03 0.02 0.02 0.04 0.08 0.09 0.06 0.06 0.02 0.00 0.00 0.00 0.00
0.00 0.00 0.01 0.02 0.01 0.00 0.01 0.01 0.03 0.04 0.07 0.07 0.06 0.05 0.04 0.02 0.01 0.01 0.01 0.01 0.02 0.08 0.14 0.11 0.04 0.01 0.01 0.00 0.00 0.00 0.00 0.00
0.00 0.00 0.02 0.00 0.00 0.00 0.00 0.01 0.01 0.00 0.01 0.01 0.00 0.00 0.00 0.00 0.00 0.02 0.02 0.06 0.13 0.12 0.04 0.01 0.00 0.00 0.00 0.00 0.00 0.00 0.00 0.00

GFSFLT1_prec_precacc12_072.txt.gz
Total_Precipitation_Accumulation
0.00 0.00 0.00 0.00 0.00 0.00 0.02 0.00 0.00 0.00 0.00 0.01 0.01 0.00 0.00 0.00 0.00 0.02 0.06 0.07 0.02 0.00 0.01 0.00 0.00 0.00 0.00 0.00 0.00 0.00 0.00 0.00
0.00 0.00 0.00 0.00 0.00 0.00 0.00 0.00 0.00 0.00 0.00 0.00 0.00 0.00 0.00 0.00 0.00 0.02 0.08 0.07 0.04 0.01 0.02 0.00 0.00 0.00 0.00 0.00 0.00 0.00 0.00 0.00
0.00 0.00 0.00 0.00 0.00 0.00 0.00 0.00 0.00 0.00 0.00 0.00 0.00 0.00 0.00 0.00 0.00 0.01 0.02 0.05 0.03 0.02 0.05 0.01 0.02 0.01 0.00 0.00 0.00 0.00 0.00 0.00
0.00 0.00 0.00 0.00 0.00 0.00 0.00 0.00 0.00 0.00 0.00 0.00 0.00 0.00 0.00 0.00 0.00 0.00 0.02 0.02 0.03 0.02 0.08 0.03 0.01 0.02 0.00 0.00 0.00 0.00 0.00 0.00
0.00 0.00 0.00 0.00 0.00 0.00 0.00 0.00 0.00 0.00 0.00 0.00 0.00 0.00 0.00 0.00 0.00 0.00 0.00 0.00 0.01 0.01 0.03 0.02 0.02 0.03 0.02 0.03 0.03 0.02 0.02 0.03
0.00 0.00 0.00 0.00 0.00 0.00 0.00 0.00 0.00 0.00 0.00 0.00 0.00 0.00 0.00 0.00 0.00 0.00 0.00 0.01 0.02 0.02 0.02 0.02 0.02 0.03 0.04 0.08 0.05 0.08 0.19 0.29
0.00 0.00 0.00 0.00 0.00 0.00 0.00 0.00 0.00 0.00 0.00 0.00 0.00 0.01 0.02 0.00 0.00 0.00 0.00 0.00 0.02 0.02 0.03 0.04 0.05 0.07 0.09 0.12 0.11 0.17 0.24 0.27
0.00 0.00 0.00 0.00 0.00 0.00 0.00 0.00 0.00 0.00 0.00 0.01 0.03 0.00 0.06 0.02 0.00 0.00 0.03 0.06 0.09 0.07 0.04 0.05 0.09 0.13 0.09 0.08 0.13 0.16 0.18 0.24
0.00 0.00 0.00 0.00 0.00 0.00 0.00 0.00 0.00 0.00 0.00 0.00 0.00 0.00 0.01 0.10 0.02 0.05 0.09 0.09 0.06 0.04 0.04 0.10 0.15 0.13 0.14 0.18 0.24 0.25 0.26 0.26
0.00 0.00 0.00 0.00 0.00 0.00 0.00 0.00 0.00 0.00 0.00 0.00 0.00 0.04 0.03 0.01 0.05 0.08 0.13 0.09 0.04 0.08 0.16 0.19 0.24 0.23 0.18 0.13 0.15 0.17 0.19 0.17
0.00 0.00 0.00 0.00 0.00 0.00 0.00 0.00 0.00 0.00 0.00 0.00 0.00 0.04 0.19 0.15 0.16 0.35 0.40 0.38 0.28 0.31 0.32 0.27 0.21 0.16 0.14 0.19 0.20 0.18 0.12 0.07
0.00 0.01 0.01 0.01 0.00 0.00 0.00 0.00 0.00 0.02 0.06 0.05 0.02 0.09 0.15 0.56 0.91 0.97 0.83 0.79 0.79 0.54 0.33 0.24 0.33 0.38 0.27 0.17 0.14 0.13 0.11 0.08
0.00 0.00 0.01 0.03 0.01 0.00 0.00 0.00 0.04 0.18 0.36 0.63 0.53 0.70 0.75 0.84 1.24 1.25 0.99 0.70 0.42 0.28 0.36 0.40 0.35 0.23 0.16 0.13 0.10 0.07 0.06 0.05
0.00 0.00 0.00 0.00 0.02 0.01 0.02 0.17 0.51 0.77 0.96 0.96 0.73 1.05 1.09 1.35 1.01 0.63 0.43 0.26 0.24 0.29 0.33 0.30 0.22 0.14 0.08 0.07 0.08 0.08 0.05 0.02
0.00 0.00 0.00 0.00 0.00 0.00 0.03 0.16 0.29 0.57 0.26 0.16 0.27 0.40 0.38 0.37 0.25 0.21 0.13 0.10 0.13 0.12 0.12 0.08 0.03 0.02 0.04 0.07 0.06 0.03 0.01 0.00
0.00 0.00 0.00 0.00 0.00 0.00 0.01 0.03 0.04 0.09 0.09 0.11 0.14 0.17 0.21 0.13 0.10 0.11 0.09 0.08 0.08 0.07 0.03 0.02 0.02 0.03 0.06 0.07 0.03 0.00 0.00 0.00
0.00 0.00 0.00 0.00 0.00 0.01 0.02 0.02 0.04 0.07 0.09 0.14 0.14 0.17 0.12 0.09 0.09 0.02 0.03 0.03 0.03 0.03 0.02 0.02 0.02 0.02 0.06 0.02 0.01 0.00 0.00 0.00
0.00 0.00 0.01 0.02 0.02 0.01 0.02 0.01 0.03 0.04 0.09 0.09 0.08 0.07 0.05 0.03 0.02 0.01 0.01 0.00 0.00 0.00 0.01 0.01 0.01 0.00 0.01 0.00 0.00 0.00 0.00 0.00
0.00 0.01 0.02 0.00 0.00 0.00 0.01 0.01 0.01 0.00 0.01 0.01 0.01 0.01 0.00 0.00 0.00 0.00 0.00 0.00 0.00 0.00 0.00 0.00 0.00 0.00 0.00 0.00 0.00 0.00 0.00 0.00

GFSFLT1_prec_precacc12_075.txt.gz
Total_Precipitation_Accumulation
0.00 0.00 0.00 0.00 0.00 0.02 0.07 0.06 0.06 0.04 0.02 0.03 0.01 0.00 0.00 0.00 0.00 0.00 0.00 0.01 0.01 0.00 0.00 0.00 0.00 0.00 0.00 0.00 0.00 0.00 0.00 0.00
0.00 0.00 0.00 0.00 0.00 0.00 0.01 0.01 0.01 0.01 0.01 0.01 0.01 0.00 0.00 0.00 0.00 0.00 0.04 0.05 0.03 0.00 0.02 0.00 0.00 0.00 0.00 0.00 0.00 0.00 0.00 0.00
0.00 0.00 0.00 0.00 0.00 0.00 0.00 0.00 0.00 0.00 0.00 0.00 0.00 0.00 0.00 0.00 0.00 0.00 0.01 0.05 0.02 0.00 0.04 0.00 0.01 0.01 0.00 0.00 0.00 0.00 0.00 0.00
0.00 0.00 0.00 0.00 0.00 0.00 0.00 0.00 0.00 0.00 0.00 0.00 0.00 0.00 0.00 0.00 0.00 0.00 0.01 0.01 0.01 0.01 0.07 0.02 0.00 0.02 0.00 0.00 0.00 0.00 0.00 0.00
0.00 0.00 0.00 0.00 0.00 0.00 0.00 0.00 0.00 0.00 0.00 0.00 0.00 0.00 0.00 0.00 0.00 0.00 0.00 0.00 0.01 0.00 0.02 0.01 0.01 0.03 0.02 0.03 0.03 0.02 0.02 0.03
0.00 0.00 0.00 0.00 0.00 0.00 0.00 0.00 0.00 0.00 0.00 0.00 0.00 0.00 0.00 0.00 0.00 0.00 0.00 0.00 0.00 0.00 0.00 0.00 0.02 0.03 0.05 0.10 0.07 0.09 0.21 0.31
0.00 0.00 0.00 0.00 0.00 0.00 0.00 0.00 0.00 0.00 0.00 0.00 0.00 0.01 0.02 0.00 0.00 0.00 0.00 0.00 0.00 0.00 0.00 0.01 0.03 0.07 0.13 0.20 0.17 0.20 0.27 0.30
0.00 0.00 0.00 0.00 0.00 0.00 0.00 0.00 0.00 0.00 0.00 0.01 0.03 0.00 0.06 0.02 0.00 0.00 0.02 0.05 0.08 0.05 0.02 0.02 0.07 0.14 0.18 0.18 0.21 0.19 0.20 0.26
0.00 0.00 0.00 0.00 0.00 0.00 0.00 0.00 0.00 0.00 0.00 0.00 0.00 0.00 0.01 0.09 0.01 0.01 0.06 0.07 0.05 0.02 0.01 0.07 0.13 0.15 0.22 0.29 0.32 0.30 0.28 0.26
0.00 0.00 0.00 0.00 0.00 0.00 0.00 0.00 0.00 0.00 0.00 0.00 0.00 0.04 0.03 0.01 0.04 0.07 0.12 0.08 0.04 0.06 0.12 0.10 0.16 0.21 0.29 0.26 0.28 0.22 0.19 0.16
0.00 0.00 0.00 0.00 0.00 0.00 0.00 0.01 0.01 0.01 0.00 0.00 0.00 0.01 0.14 0.14 0.16 0.34 0.40 0.42 0.32 0.32 0.32 0.29 0.24 0.20 0.19 0.26 0.27 0.19 0.12 0.08
0.00 0.01 0.01 0.01 0.00 0.01 0.01 0.00 0.03 0.09 0.17 0.07 0.01 0.05 0.11 0.51 0.87 0.94 0.85 0.86 0.90 0.73 0.58 0.46 0.37 0.36 0.31 0.25 0.17 0.12 0.07 0.06
0.00 0.00 0.01 0.03 0.01 0.00 0.00 0.00 0.07 0.41 0.60 0.74 0.56 0.73 0.77 0.87 1.28 1.32 1.07 0.93 0.74 0.59 0.47 0.27 0.20 0.16 0.13 0.10 0.09 0.06 0.05 0.05
0.00 0.00 0.00 0.00 0.02 0.01 0.02 0.17 0.53 0.88 1.07 1.02 0.77 1.06 1.11 1.41 1.28 1.11 0.88 0.58 0.34 0.17 0.12 0.13 0.11 0.09 0.06 0.06 0.06 0.06 0.05 0.04
0.00 0.00 0.00 0.00 0.00 0.00 0.03 0.16 0.30 0.59 0.29 0.22 0.33 0.40 0.38 0.42 0.32 0.32 0.22 0.17 0.14 0.12 0.13 0.11 0.06 0.05 0.06 0.07 0.06 0.04 0.02 0.02
0.00 0.00 0.00 0.00 0.00 0.00 0.01 0.03 0.04 0.11 0.09 0.13 0.14 0.17 0.21 0.13 0.11 0.12 0.14 0.14 0.12 0.09 0.07 0.06 0.06 0.07 0.08 0.06 0.04 0.03 0.02 0.02
0.00 0.00 0.00 0.00 0.00 0.00 0.02 0.01 0.02 0.06 0.11 0.11 0.13 0.16 0.12 0.09 0.10 0.04 0.04 0.06 0.07 0.07 0.06 0.07 0.06 0.05 0.10 0.06 0.03 0.01 0.01 0.01
0.00 0.00 0.01 0.02 0.02 0.00 0.00 0.00 0.02 0.04 0.10 0.11 0.11 0.08 0.06 0.04 0.02 0.02 0.01 0.02 0.03 0.03 0.03 0.04 0.04 0.03 0.06 0.02 0.02 0.00 0.00 0.00
0.00 0.01 0.02 0.00 0.00 0.00 0.00 0.01 0.01 0.01 0.02 0.03 0.03 0.02 0.01 0.00 0.01 0.01 0.01 0.01 0.01 0.02 0.02 0.02 0.01 0.02 0.02 0.01 0.01 0.00 0.00 0.00